Regional Weather Roundup
Issued by NWS Cleveland, OH

Home | Current Version | Previous Version | Text Only | Print | Product List | Glossary Off
Versions: 1 2 3 4 5 6 7 8 9 10 11 12 13 14 15 16 17 18 19 20 21 22 23 24 25 26 27 28 29 30 31 32 33 34 35 36 37 38 39 40 41 42 43 44 45 46 47 48 49 50

000
ASUS41 KCLE 250410
RWRCLE
OHIO REGIONAL WEATHER ROUNDUP
NATIONAL WEATHER SERVICE CLEVELAND, OH
1200 AM EDT MON MAY 25 2015

NOTE: "FAIR" INDICATES FEW OR NO CLOUDS BELOW 12,000 FEET WITH NO
SIGNIFICANT WEATHER AND/OR OBSTRUCTIONS TO VISIBILITY.

OHZ001>008-015>018-024>027-034-035-043-044-250500-
   NORTHWEST OHIO

CITY           SKY/WX    TMP DP  RH WIND       PRES   REMARKS
DEFIANCE       CLEAR     72  52  49 S8        30.07S
FINDLAY        CLEAR     66  51  58 S9        30.10S
TOLEDO EXPRESS CLEAR     70  50  49 S7        30.07F
TOLEDO EXEC    CLEAR     67  50  54 SE8       30.08F
LIMA           CLEAR     67  51  56 S6        30.11S
$$

OHZ009>014-019>023-028>033-038-089-250500-
   NORTHEAST OHIO

CITY           SKY/WX    TMP DP  RH WIND       PRES   REMARKS
CLE-HOPKINS    MOCLDY    68  51  54 S9        30.15F
CLE-LAKEFRONT  MOCLDY    71  48  43 S10       30.13S
CUY CO. ARPT   NOT AVBL
LORAIN-ELYRIA  PTCLDY    69  52  54 S10       30.13F
ASHTABULA      MOCLDY    66  48  52 S7        30.17F
AKRON-CANTON   PTCLDY    67  50  54 S7        30.18S
WOOSTER        CLEAR     64  51  62 S6        30.17F
MANSFIELD      PTCLDY    68  53  58 S10       30.15F
YOUNGSTOWN     PTCLDY    65  45  48 SE8       30.18F
$$

OHZ042-051>053-060>062-070>072-077>081-250500-
  SOUTHWEST OHIO

CITY           SKY/WX    TMP DP  RH WIND       PRES   REMARKS
CINC-COVINGTON PTCLDY    70  53  54 S10       30.13S
CINC-LUNKEN    CLEAR     64  55  72 CALM      30.13S
HAMILTON       CLEAR     66  53  63 CALM      30.12S
DAYTON         FAIR      72  50  45 S10       30.13S
WRIGHT-PAT AFB FAIR      69  51  54 S6        30.12F
DAYTON GENERAL FAIR      68  50  52 S6        30.12S
WILMINGTON     CLEAR     68  51  54 S5        30.14F
$$

OHZ036-037-039>041-045>050-054>059-063>069-073>076-082>088-250500-
  CENTRAL AND SOUTHEAST OHIO

CITY           SKY/WX    TMP DP  RH WIND       PRES   REMARKS
COLUMBUS       CLEAR     71  53  52 SE6       30.14F
OSU AIRPORT    CLEAR     73  52  47 S9        30.14F
BOLTON FIELD   NOT AVBL
RICKENBACK AFB CLEAR     67  54  61 SE7       30.14F
NEWARK         CLEAR     62  55  77 CALM      30.15F
MARION         CLEAR     68  52  56 S8        30.14S
LANCASTER      CLEAR     64  55  72 S3        30.16F
ZANESVILLE     CLEAR     64  53  67 SE3       30.18S
NEW PHILLY     CLEAR     62  54  74 SE6       30.19S
$$



USA.gov is the U.S. government's official web portal to all federal, state and local government web resources and services.